Time,TemperatureF,DewpointF,PressureIn,WindDirection,WindDirectionDegrees,WindSpeedMPH,WindSpeedGustMPH,Humidity,HourlyPrecipIn,Conditions,Clouds,dailyrainin,SolarRadiationWatts/m^2,SoftwareType,DateUTC
2013-12-17 00:21:00,68.0,23.0,30.06,NNE,29,5.0,14.0,18,0.00,,,0.00,0.000000,,2013-12-17 08:21:00,
2013-12-17 00:32:00,68.0,23.0,30.06,NNE,29,5.0,14.0,18,0.00,,,0.00,0.000000,,2013-12-17 08:32:00,
2013-12-17 00:42:00,68.0,23.0,30.06,NNE,29,5.0,14.0,18,0.00,,,0.00,0.000000,,2013-12-17 08:42:00,
2013-12-17 00:52:00,68.0,23.0,30.06,NNE,29,5.0,14.0,18,0.00,,,0.00,0.000000,,2013-12-17 08:52:00,
2013-12-17 01:22:00,74.0,20.0,30.04,North,0,10.0,13.0,13,0.00,,,-99.99,0.000000,,2013-12-17 09:22:00,
2013-12-17 01:33:00,74.0,20.0,30.04,North,0,10.0,13.0,13,0.00,,,-99.99,0.000000,,2013-12-17 09:33:00,
2013-12-17 01:43:00,74.0,20.0,30.04,North,0,10.0,13.0,13,0.00,,,-99.99,0.000000,,2013-12-17 09:43:00,
2013-12-17 01:53:00,74.0,20.0,30.04,North,0,10.0,13.0,13,0.00,,,-99.99,0.000000,,2013-12-17 09:53:00,
2013-12-17 02:23:00,74.0,20.0,30.02,North,2,10.0,15.0,13,0.00,,,-99.99,0.000000,,2013-12-17 10:23:00,
2013-12-17 02:33:00,74.0,20.0,30.02,North,2,10.0,15.0,13,0.00,,,-99.99,0.000000,,2013-12-17 10:33:00,
2013-12-17 02:43:00,74.0,20.0,30.02,North,2,10.0,15.0,13,0.00,,,-99.99,0.000000,,2013-12-17 10:43:00,
2013-12-17 02:52:00,74.0,20.0,30.02,North,2,10.0,15.0,13,0.00,,,-99.99,0.000000,,2013-12-17 10:52:00,
2013-12-17 03:22:00,72.0,23.0,30.03,East,79,6.0,15.0,16,0.00,,,0.00,0.000000,,2013-12-17 11:22:00,
2013-12-17 03:33:00,72.0,23.0,30.03,East,79,6.0,15.0,16,0.00,,,0.00,0.000000,,2013-12-17 11:33:00,
2013-12-17 03:42:00,72.0,23.0,30.03,East,79,6.0,15.0,16,0.00,,,0.00,0.000000,,2013-12-17 11:42:00,
2013-12-17 03:52:00,72.0,23.0,30.03,East,79,6.0,15.0,16,0.00,,,0.00,0.000000,,2013-12-17 11:52:00,
2013-12-17 08:23:00,68.0,42.0,30.07,SE,140,1.0,8.0,39,0.00,,,0.00,43.000000,,2013-12-17 16:23:00,
2013-12-17 08:33:00,68.0,42.0,30.07,SE,140,1.0,8.0,39,0.00,,,0.00,43.000000,,2013-12-17 16:33:00,
2013-12-17 08:52:00,68.0,42.0,30.07,SE,140,1.0,8.0,39,0.00,,,0.00,43.000000,,2013-12-17 16:52:00,
2013-12-17 09:22:00,75.0,40.0,30.08,SW,225,3.0,5.0,28,0.00,,,0.00,234.000000,,2013-12-17 17:22:00,
2013-12-17 09:33:00,75.0,40.0,30.08,SW,225,3.0,5.0,28,0.00,,,0.00,234.000000,,2013-12-17 17:33:00,
2013-12-17 09:42:00,75.0,40.0,30.08,SW,225,3.0,5.0,28,0.00,,,0.00,234.000000,,2013-12-17 17:42:00,
2013-12-17 09:52:00,75.0,40.0,30.08,SW,225,3.0,5.0,28,0.00,,,0.00,234.000000,,2013-12-17 17:52:00,
2013-12-17 10:42:00,79.0,41.0,30.10,East,86,3.0,5.0,26,0.00,,,0.00,422.000000,,2013-12-17 18:42:00,
2013-12-17 10:52:00,79.0,41.0,30.10,East,86,3.0,5.0,26,0.00,,,0.00,422.000000,,2013-12-17 18:52:00,
2013-12-17 11:52:00,81.0,37.0,30.08,ESE,113,3.0,5.0,21,-99.99,,,0.00,477.000000,,2013-12-17 19:52:00,
2013-12-17 12:22:00,78.0,38.0,30.05,East,101,3.0,7.0,24,0.00,,,0.00,589.000000,,2013-12-17 20:22:00,
2013-12-17 12:31:00,78.0,38.0,30.05,East,101,3.0,7.0,24,0.00,,,0.00,589.000000,,2013-12-17 20:31:00,
2013-12-17 12:42:00,78.0,38.0,30.05,East,101,3.0,7.0,24,0.00,,,0.00,589.000000,,2013-12-17 20:42:00,
2013-12-17 12:52:00,78.0,38.0,30.05,East,101,3.0,7.0,24,0.00,,,0.00,589.000000,,2013-12-17 20:52:00,
2013-12-17 13:22:00,77.0,36.0,30.03,East,100,2.0,6.0,23,0.00,,,0.00,542.000000,,2013-12-17 21:22:00,
2013-12-17 13:33:00,77.0,36.0,30.03,East,100,2.0,6.0,23,0.00,,,0.00,542.000000,,2013-12-17 21:33:00,
2013-12-17 13:43:00,77.0,36.0,30.03,East,100,2.0,6.0,23,0.00,,,0.00,542.000000,,2013-12-17 21:43:00,
2013-12-17 13:53:00,77.0,36.0,30.03,East,100,2.0,6.0,23,0.00,,,0.00,542.000000,,2013-12-17 21:53:00,
2013-12-17 14:23:00,77.0,32.0,30.00,East,101,2.0,6.0,19,0.00,,,0.00,456.000000,,2013-12-17 22:23:00,
2013-12-17 14:34:00,77.0,32.0,30.00,East,101,2.0,6.0,19,0.00,,,0.00,456.000000,,2013-12-17 22:34:00,
2013-12-17 14:43:00,77.0,32.0,30.00,East,101,2.0,6.0,19,0.00,,,0.00,456.000000,,2013-12-17 22:43:00,
2013-12-17 14:53:00,77.0,32.0,30.00,East,101,2.0,6.0,19,0.00,,,0.00,456.000000,,2013-12-17 22:53:00,
2013-12-17 15:22:00,72.0,48.0,30.01,WSW,246,6.0,6.0,43,0.00,,,0.00,264.000000,,2013-12-17 23:22:00,
2013-12-17 15:33:00,72.0,48.0,30.01,WSW,246,6.0,6.0,43,0.00,,,0.00,264.000000,,2013-12-17 23:33:00,
2013-12-17 15:42:00,72.0,48.0,30.01,WSW,246,6.0,6.0,43,0.00,,,0.00,264.000000,,2013-12-17 23:42:00,
2013-12-17 15:53:00,72.0,48.0,30.01,WSW,246,6.0,6.0,43,0.00,,,0.00,264.000000,,2013-12-17 23:53:00,
2013-12-17 16:42:00,66.0,52.0,30.00,East,83,2.0,12.0,60,0.00,,,0.00,107.000000,,2013-12-18 00:42:00,
2013-12-17 17:22:00,65.0,46.0,29.99,NNW,344,4.0,4.0,50,0.00,,,0.00,22.000000,,2013-12-18 01:22:00,
2013-12-17 17:32:00,65.0,46.0,29.99,NNW,344,4.0,4.0,50,0.00,,,0.00,22.000000,,2013-12-18 01:32:00,
2013-12-17 17:42:00,65.0,46.0,29.99,NNW,344,4.0,4.0,50,0.00,,,0.00,22.000000,,2013-12-18 01:42:00,
2013-12-17 17:52:00,65.0,46.0,29.99,NNW,344,4.0,4.0,50,0.00,,,0.00,22.000000,,2013-12-18 01:52:00,
2013-12-17 18:21:00,64.0,47.0,29.99,NE,37,3.0,7.0,55,0.00,,,0.00,0.000000,,2013-12-18 02:21:00,
2013-12-17 18:32:00,64.0,47.0,29.99,NE,37,3.0,7.0,55,0.00,,,0.00,0.000000,,2013-12-18 02:32:00,
2013-12-17 18:42:00,64.0,47.0,29.99,NE,37,3.0,7.0,55,0.00,,,0.00,0.000000,,2013-12-18 02:42:00,
2013-12-17 18:52:00,64.0,47.0,29.99,NE,37,3.0,7.0,55,0.00,,,0.00,0.000000,,2013-12-18 02:52:00,
2013-12-17 19:22:00,64.0,42.0,30.00,West,263,7.0,8.0,44,0.00,,,0.00,0.000000,,2013-12-18 03:22:00,
2013-12-17 19:33:00,64.0,42.0,30.00,West,263,7.0,8.0,44,0.00,,,0.00,0.000000,,2013-12-18 03:33:00,
2013-12-17 19:43:00,64.0,42.0,30.00,West,263,7.0,8.0,44,0.00,,,0.00,0.000000,,2013-12-18 03:43:00,
2013-12-17 19:53:00,64.0,42.0,30.00,West,263,7.0,8.0,44,0.00,,,0.00,0.000000,,2013-12-18 03:53:00,
2013-12-17 22:22:00,68.0,41.0,30.00,NNW,347,10.0,22.0,38,-99.99,,,0.00,0.000000,,2013-12-18 06:22:00,
2013-12-17 22:32:00,68.0,41.0,30.00,NNW,347,10.0,22.0,38,-99.99,,,0.00,0.000000,,2013-12-18 06:32:00,
2013-12-17 22:42:00,68.0,41.0,30.00,NNW,347,10.0,22.0,38,-99.99,,,0.00,0.000000,,2013-12-18 06:42:00,
2013-12-17 22:52:00,68.0,41.0,30.00,NNW,347,10.0,22.0,38,-99.99,,,0.00,0.000000,,2013-12-18 06:52:00,
2013-12-17 23:22:00,66.0,42.0,29.98,NW,310,6.0,24.0,41,0.00,,,0.00,0.000000,,2013-12-18 07:22:00,
2013-12-17 23:32:00,66.0,42.0,29.98,NW,310,6.0,24.0,41,0.00,,,0.00,0.000000,,2013-12-18 07:32:00,
2013-12-17 23:42:00,66.0,42.0,29.98,NW,310,6.0,24.0,41,0.00,,,0.00,0.000000,,2013-12-18 07:42:00,
2013-12-17 23:52:00,66.0,42.0,29.98,NW,310,6.0,24.0,41,0.00,,,0.00,0.000000,,2013-12-18 07:52:00,